This demonstration page uses our WeatherBlox Daily Observations layout. Learn more.

Left ArrowRight Arrow

Hourly Observations for August 29, 2019

Temp ( °F °C ) Dew Point ( °F °C ) Humidity (%) Winds ( mph kmh ) Pressure ( in mb ) Visibility ( mi km ) Precip ( " mm )
12:59 am 00:59 Mostly Cloudy 76 24.4 65 18.3 69 69 NW 10 17 29.88 1012 10 16 0.00 0.00
1:59 am 01:59 Mostly Cloudy 74 23.3 65 18.3 74 74 NNW 12 19 29.89 1012 10 16 0.00 0.00
2:59 am 02:59 Partly Cloudy 73 22.8 64 17.8 74 74 NNW 10 17 29.90 1012 10 16 0.00 0.00
3:59 am 03:59 Partly Cloudy 71 21.7 65 18.3 81 81 NNW 7 11 29.91 1013 10 16 0.00 0.00
4:59 am 04:59 Clear 71 21.7 66 18.9 84 84 NW 10 17 29.91 1013 10 16 0.00 0.00
5:59 am 05:59 Clear 72 22.2 63 17.2 73 73 NNW 13 20 29.93 1013 10 16 0.00 0.00
6:59 am 06:59 Mostly Sunny 73 22.8 62 16.7 69 69 NNW 10 17 29.94 1014 10 16 0.00 0.00
7:59 am 07:59 Sunny 74 23.3 61 16.1 64 64 NNW 13 20 29.96 1015 10 16 0.00 0.00
8:59 am 08:59 Sunny 76 24.4 61 16.1 60 60 N 12 19 29.98 1015 10 16 0.00 0.00
9:59 am 09:59 Sunny 79 26.1 60 15.6 52 52 N 12 19 30.01 1016 10 16 0.00 0.00
10:59 am 10:59 Sunny 81 27.2 60 15.6 49 49 N 12 19 30.04 1017 10 16 0.00 0.00
11:59 am 11:59 Sunny 81 27.2 58 14.4 45 45 NNE 10 17 30.04 1017 10 16 0.00 0.00
12:59 pm 12:59 Sunny 82 27.8 56 13.3 41 41 NNE 10 17 30.03 1017 10 16 0.00 0.00
1:59 pm 13:59 Sunny 83 28.3 59 15 44 44 NNW 5 7 30.01 1016 10 16 0.00 0.00
2:59 pm 14:59 Mostly Sunny 83 28.3 54 12.2 37 37 W 7 11 30.00 1016 10 16 0.00 0.00
3:59 pm 15:59 Sunny 84 28.9 51 10.6 32 32 WNW 7 11 29.99 1016 10 16 0.00 0.00
4:59 pm 16:59 Sunny 83 28.3 55 12.8 38 38 W 7 11 29.99 1016 10 16 0.00 0.00
5:59 pm 17:59 Sunny 82 27.8 56 13.3 41 41 WNW 7 11 29.99 1016 10 16 0.00 0.00
6:59 pm 18:59 Sunny 81 27.2 54 12.2 39 39 WNW 8 13 30.00 1016 10 16 0.00 0.00
7:59 pm 19:59 Clear 77 25 59 15 54 54 NNW 3 6 30.02 1017 10 16 0.00 0.00
8:59 pm 20:59 Clear 70 21.1 61 16.1 73 73 Calm 30.05 1018 10 16 0.00 0.00
9:59 pm 21:59 Clear 70 21.1 60 15.6 71 71 ESE 5 7 30.07 1018 10 16 0.00 0.00
10:59 pm 22:59 Clear 71 21.7 61 16.1 71 71 SSE 6 9 30.08 1019 10 16 0.00 0.00
11:59 pm 23:59 Clear 70 21.1 63 17.2 79 79 SSE 6 9 30.08 1019 10 16 0.00 0.00

Powered by AerisWeather